Flag for France Weather past 2 weeks in Strasbourg, France

Now
46 °F

Clear.


Feels Like: 42 °F
Forecast: 35 / 62 °F
Wind: 8 mph from Northeast

Location: Strasbourg Airport


UV Index: 3 (Moderate)

Visibility: N/A


Pressure: 30.36 "Hg

Humidity: 57%

Dew point: 32 °F

Location of StrasbourgLocation

Historic Weather in Strasbourg

°F

Strasbourg temperature yesterday

Maximum temperature yesterday: 54 °F (at 3:30 PM)
Minimum temperature yesterday: 36 °F (at 6:00 AM)
Average temperature yesterday: 47 °F

Past Weeks' High & Low Weather Summary

 TemperatureHumidityPressure
High75 °F (Apr 2, 3:30 PM)100% (Apr 6, 3:30 AM)30.36 "Hg (Apr 6, 3:30 AM)
Low36 °F (Apr 15, 6:00 AM)27% (Apr 2, 4:00 PM)29.62 "Hg (Apr 3, 4:00 PM)
Average56 °F59%30.01 "Hg
* Reported Apr 1 8:00 AM — Apr 16 8:00 AM, Strasbourg, Weather by CustomWeather, © 2014

Note: Actual official high and low records may vary slightly from our data, if they occured in-between our weather recording intervals... More about our weather records

Advertising

Historic Weather Conditions — Data for Previous 24 hours

 ConditionsComfort  
Time TempWeatherWind HumidityBarometerVisibility
8:00 AM
Apr 16
41 °FPassing clouds.8 mph70%30.36 "HgN/A
7:30 AM39 °FClear.8 mph75%30.36 "HgN/A
7:00 AM36 °FClear.2 mph81%30.33 "HgN/A
6:30 AM36 °FClear.6 mph81%30.33 "HgN/A
6:00 AM37 °FClear.5 mph70%30.33 "HgN/A
5:30 AM37 °FClear.5 mph70%30.33 "HgN/A
5:00 AM37 °FClear.5 mph70%30.33 "HgN/A
4:30 AM37 °FClear.5 mph70%30.33 "HgN/A
4:00 AM37 °FClear.3 mph65%30.33 "HgN/A
3:30 AM39 °FClear.5 mph61%30.33 "HgN/A
3:00 AM39 °FClear.3 mph65%30.33 "HgN/A
1:30 AM41 °FClear.2 mph57%30.33 "HgN/A
12:30 AM43 °FClear.2 mph53%30.33 "HgN/A
12:00 AM43 °FClear.3 mph53%30.33 "HgN/A
11:30 PM
Apr 15
45 °FClear.5 mph46%30.33 "HgN/A
11:00 PM46 °FOvercast.6 mph43%30.33 "HgN/A
10:30 PM48 °FOvercast.8 mph40%30.30 "HgN/A
10:00 PM48 °FClear.10 mph40%30.30 "HgN/A
9:30 PM48 °FClear.12 mph40%30.30 "HgN/A
9:00 PM48 °FClear.9 mph40%30.30 "HgN/A
8:30 PM50 °FClear.10 mph37%30.27 "HgN/A
8:00 PM50 °FClear.7 mph37%30.27 "HgN/A
7:30 PM50 °FClear.10 mph37%30.27 "HgN/A
7:00 PM50 °FClear.7 mph37%30.27 "HgN/A
6:30 PM52 °FPassing clouds.9 mph35%30.27 "HgN/A
6:00 PM54 °FPassing clouds.7 mph33%30.27 "HgN/A
5:30 PM52 °FPassing clouds.10 mph35%30.27 "HgN/A
5:00 PM52 °FPartly sunny.13 mph35%30.27 "HgN/A
4:30 PM52 °FClear.9 mph32%30.27 "HgN/A
4:00 PM52 °FPartly sunny.8 mph38%30.27 "HgN/A
3:30 PM54 °FPartly sunny.8 mph35%30.30 "HgN/A
3:00 PM52 °FPartly sunny.10 mph35%30.30 "HgN/A
2:30 PM50 °FPartly sunny.9 mph37%30.30 "HgN/A
2:00 PM50 °FPartly sunny.10 mph37%30.30 "HgN/A
1:30 PM52 °FPartly sunny.12 mph38%30.30 "HgN/A
1:00 PM50 °FPartly sunny.9 mph40%30.30 "HgN/A
12:30 PM48 °FPartly sunny.12 mph43%30.30 "HgN/A
12:00 PM50 °FPartly sunny.10 mph37%30.30 "HgN/A
11:30 AM50 °FPartly sunny.12 mph40%30.30 "HgN/A
11:00 AM46 °FPartly sunny.13 mph46%30.30 "HgN/A
10:30 AM48 °FPartly sunny.9 mph43%30.30 "HgN/A
10:00 AM48 °FPassing clouds.12 mph46%30.30 "HgN/A
Weather by CustomWeather, © 2014

See weather overview